Regional Weather Roundup
Issued by NWS

Home | Current Version | Previous Version | Graphics & Text | Print | Product List | Glossary On
Versions: 1 2 3 4 5 6 7 8 9 10 11 12 13 14 15 16 17 18 19 20 21 22 23 24 25 26 27 28 29 30 31 32 33 34 35 36 37 38 39 40 41 42 43 44 45 46 47 48 49 50
000
ASUS43 KDMX 151201
RWRIA

WEATHER ROUNDUP FOR IOWA
NATIONAL WEATHER SERVICE DES MOINES IA
600 AM CST FRI DEC 15 2017

NOTE: "FAIR" INDICATES FEW OR NO CLOUDS BELOW 12,000 FEET WITH NO
SIGNIFICANT WEATHER AND/OR OBSTRUCTIONS TO VISIBILITY.

* - THESE STATIONS ARE NOT NWS STATIONS...THUS NOT UNDER NWS
QUALITY CONTROL.  THEY ALSO DO NOT REPORT WEATHER SUCH
AS PRECIPITATION OR FOG.

IAZ001>003-012>014-020>022-031>034-043>046-151300-
   NORTHWEST IOWA

CITY           SKY/WX    TMP DP  RH WIND       PRES   REMARKS
CARROLL *      CLOUDY    30  25  80 W14G20    29.99F WCI  20
CHEROKEE *     CLOUDY    31  26  81 W8        29.97F WCI  24
DENISON *      CLOUDY    30  27  86 SW7       30.02F WCI  23
LE MARS *      CLOUDY    34  25  69 SW10      29.98F WCI  26
ORANGE CITY *  CLOUDY    34  30  86 W12       29.96S WCI  25
SHELDON *      CLOUDY    30  27  86 SW10      29.93F WCI  21
SIOUX CITY     CLOUDY    34  25  69 W14       30.00F WCI  25
6HR MIN TEMP:  30; 6HR MAX TEMP:  34;

SPENCER        CLOUDY    30  26  85 W13       29.94F WCI  20
6HR MIN TEMP:  26; 6HR MAX TEMP:  30;

STORM LAKE *   CLOUDY    30  25  80 W14       29.96F WCI  20
$$

IAZ055>058-069>071-079>083-090>094-151300-
   SOUTHWEST IOWA

CITY           SKY/WX    TMP DP  RH WIND       PRES   REMARKS
ATLANTIC *     CLOUDY    32  25  74 SW12      30.04S WCI  23
AUDUBON *      CLOUDY    30  25  80 SW7       30.02F WCI  23
CLARINDA *       N/A     32  25  74 W10       30.10F WCI  24
COUNCIL BLFS * CLOUDY    32  30  93 SW10      30.05F WCI  24
CRESTON *      CLOUDY    28  25  86 SW10      30.04F WCI  19
HARLAN  *      CLOUDY    30  27  86 SW13      30.06F WCI  20
LAMONI         CLOUDY    29  21  72 SW7       30.05F WCI  22
6HR MIN TEMP:  29; 6HR MAX TEMP:  33;

RED OAK *      CLOUDY    32  25  74 SW9       30.07F WCI  24
SHENANDOAH *   CLOUDY    32  25  74 SW8       30.10F WCI  25
$$

IAZ047>049-059>061-072>074-084-151300-
   CENTRAL IOWA

CITY           SKY/WX    TMP DP  RH WIND       PRES   REMARKS
AMES           CLOUDY    28  24  85 SW10      30.00F WCI  19
6HR MIN TEMP:  26; 6HR MAX TEMP:  29;

ANKENY *       CLOUDY    28  23  80 W7        30.03F WCI  21
BOONE *        CLOUDY    27  23  86 SW9       29.98F WCI  17
CHARITON *     CLOUDY    27  23  86 SW6       30.03F WCI  20
DES MOINES     CLOUDY    29  22  75 W8        30.03S WCI  21
6HR MIN TEMP:  27; 6HR MAX TEMP:  33; 6HR PCP: TRACE;

GRINNELL*      PTCLDY    21  19  93 W7        30.02S WCI  13
KNOXVILLE *    MOCLDY    25  21  86 SW5       30.02S WCI  19
MARSHALLTOWN   CLOUDY    24  21  88 SW10      29.98F WCI  14
6HR MIN TEMP:  19; 6HR MAX TEMP:  27;

NEWTON *       CLOUDY    23  21  93 W6        30.02S WCI  16
PELLA *        MOCLDY    26  23  87 W5        30.04S WCI  21
$$

IAZ004>006-015-016-023>025-035-036-151300-
   NORTH CENTRAL IOWA

CITY           SKY/WX    TMP DP  RH WIND       PRES   REMARKS
ALGONA *       CLOUDY    28  28 100 W12       29.93F WCI  18
CLARION *      CLOUDY    28  27  93 SW10      29.95F WCI  19
ESTHERVILLE    CLOUDY    28  26  92 W10       29.92F WCI  19
6HR MIN TEMP:  25; 6HR MAX TEMP:  28; 6HR PCP: TRACE;

FORT DODGE *   CLOUDY    29  25  85 SW12      29.96F WCI  19
MASON CITY     FLURRIES  26  22  84 W9        29.94F WCI  17
6HR MIN TEMP:  22; 6HR MAX TEMP:  26; 6HR PCP: TRACE;

FOREST CITY *  FLURRIES  30  27  86 W8        29.92F WCI  23
WEBSTER CITY * CLOUDY    28  23  80 SW10      29.95F WCI  19
IOWA FALLS *   CLOUDY    27  23  86 SW10      29.97F WCI  17
$$

IAZ007>011-017>019-026>030-037>042-050>054-066-151300-
   NORTHEAST IOWA

CITY           SKY/WX    TMP DP  RH WIND       PRES   REMARKS
CEDAR RAPIDS   MOCLDY    22  18  85 W9        29.98F WCI  12
6HR MIN TEMP:  20; 6HR MAX TEMP:  28; 6HR PCP: TRACE;

CHARLES CITY * CLOUDY    25  23  93 W9        29.94F WCI  15
CLINTON *      CLOUDY    22  17  81 W14       29.98S WCI   9
DECORAH *      CLOUDY    25  19  80 VRB6      29.92R WCI  18
DUBUQUE        CLEAR     21  16  81 W10       29.93F WCI  10
6HR MIN TEMP:  21; 6HR MAX TEMP:  25;

MONTICELLO *   CLOUDY    25  18  74 W7G13     29.96F WCI  17
OELWEIN *      CLOUDY    25  21  86 W10       29.95F WCI  15
WATERLOO       MOCLDY    23  18  81 W9        29.97S WCI  13
6HR MIN TEMP:  21; 6HR MAX TEMP:  27;

$$

IAZ064-065-067-068-078-151300-
   EAST CENTRAL IOWA

CITY           SKY/WX    TMP DP  RH WIND       PRES   REMARKS
DAVENPORT      MOCLDY    23  17  78 W9        30.01S WCI  13
6HR MIN TEMP:  22; 6HR MAX TEMP:  27;

IOWA CITY      MOCLDY    25  18  74 W6        30.02F WCI  18
6HR MIN TEMP:  25; 6HR MAX TEMP:  30;

MT. PLEASANT * PTCLDY    27  23  84 W7        30.04S WCI  20
MUSCATINE *    CLOUDY    27  21  80 NW9       30.04R WCI  17
QUAD CITIES    PTCLDY    26  19  74 NW7       30.00S WCI  18
6HR MIN TEMP:  26; 6HR MAX TEMP:  29;

$$

IAZ062-063-075>077-085>089-095>099-151300-
   SOUTHEAST IOWA

CITY           SKY/WX    TMP DP  RH WIND       PRES   REMARKS
BURLINGTON     CLOUDY    29  24  82 W7        30.03S WCI  22
6HR MIN TEMP:  25; 6HR MAX TEMP:  29;

FAIRFIELD *    MOCLDY    27  23  86 W8        30.03F WCI  18
FORT MADISON * CLOUDY    28  25  86 W9        30.05S WCI  20
KEOKUK *       CLOUDY    30  25  80 NW10      30.05R WCI  21
OSKALOOSA *      N/A     21  20  94 SW7       30.03S WCI  13
OTTUMWA        CLEAR     24  21  88 SW7       30.03F WCI  16
6HR MIN TEMP:  24; 6HR MAX TEMP:  31;

WASHINGTON *   CLOUDY    27  25  93 W8        30.04S WCI  18
$$

ABBREVIATIONS USED IN REMARKS
   TC - TEMPERATURES IN CELSIUS
  WCI - WIND CHILL INDEX
   HX - HEAT INDEX
  VSB - VISIBILITY
$$





USA.gov is the U.S. government's official web portal to all federal, state and local government web resources and services.